This demonstration page uses our WeatherBlox Daily Observations layout. Learn more.

Left ArrowRight Arrow

39.08367, -84.50855

Hourly Observations for August 5, 2015

Temp ( °F °C ) Dew Point ( °F °C ) Humidity (%) Winds ( mph kmh ) Pressure ( in mb ) Visibility ( mi km ) Precip ( " mm )
12:53 am 00:53 Clear 67 19.4 65 18.3 93 93 NNE 3 6 30.00 1016 10 16 N/A
1:53 am 01:53 Clear 66 18.9 66 18.9 100 100 S 3 6 30.00 1016 10 16 N/A
2:53 am 02:53 Clear 66 18.9 65 18.3 96 96 N N/A 30.01 1016 10 16 N/A
3:53 am 03:53 Clear 66 18.9 66 18.9 100 100 N N/A 30.01 1016 10 16 N/A
4:53 am 04:53 Clear 65 18.3 65 18.3 100 100 N N/A 30.03 1017 8 13 N/A
5:38 am 05:38 Clear with Mist and Fog 63 17 63 17 100 100 N N/A 30.00 1016 2 3 N/A
5:42 am 05:42 Mostly Cloudy with Mist and Fog 63 17.2 63 17.2 100 100 N N/A 30.00 1016 1 1 N/A
5:53 am 05:53 Clear with Mist and Fog 63 17.2 63 17.2 100 100 N N/A 30.04 1017 2 3 N/A
6:00 am 06:00 Clear 64 17.8 64 17.8 100 100 N N/A 30.03 1017 9 14 N/A
6:15 am 06:15 Clear with Mist and Fog 63 17.2 63 17.2 100 100 N N/A 30.03 1017 2 3 N/A
6:53 am 06:53 Sunny with Fog 63 17.2 63 17.2 100 100 N N/A 30.04 1017 8 13 N/A
7:53 am 07:53 Sunny 66 18.9 65 18.3 96 96 N N/A 30.05 1018 10 16 N/A
8:53 am 08:53 Sunny 69 20.6 66 18.9 90 90 N N/A 30.05 1018 10 16 N/A
9:53 am 09:53 Sunny 75 23.9 63 17.2 66 66 VRB 5 7 30.06 1018 10 16 N/A
10:53 am 10:53 Sunny 78 25.6 63 17.2 60 60 NE 3 6 30.06 1018 10 16 N/A
11:53 am 11:53 Sunny 80 26.7 62 16.7 54 54 ENE 6 9 30.06 1018 10 16 N/A
12:53 pm 12:53 Sunny 81 27.2 63 17.2 54 54 ENE 7 11 30.04 1017 10 16 N/A
1:53 pm 13:53 Sunny 81 27.2 63 17.2 54 54 VRB 3 6 30.04 1017 10 16 N/A
2:53 pm 14:53 Sunny 82 27.8 63 17.2 53 53 N N/A 30.01 1016 10 16 N/A
3:53 pm 15:53 Sunny 83 28.3 65 18.3 55 55 SSE 3 6 30.00 1016 10 16 N/A
4:53 pm 16:53 Sunny 83 28.3 64 17.8 53 53 N N/A 29.99 1016 10 16 N/A
5:53 pm 17:53 Sunny 82 27.8 66 18.9 58 58 S 3 6 29.98 1015 10 16 N/A
6:53 pm 18:53 Sunny 80 26.7 66 18.9 62 62 N N/A 29.98 1015 10 16 N/A
7:53 pm 19:53 Sunny 78 25.6 65 18.3 64 64 ENE 6 9 29.98 1015 10 16 N/A
8:53 pm 20:53 Cloudy 76 24.4 65 18.3 69 69 NE 7 11 29.98 1015 10 16 N/A
9:53 pm 21:53 Mostly Cloudy 75 23.9 65 18.3 71 71 NNE 6 9 29.97 1015 10 16 N/A
10:53 pm 22:53 Clear 74 23.3 64 17.8 71 71 N N/A 29.97 1015 10 16 N/A
11:53 pm 23:53 Mostly Cloudy 73 22.8 64 17.8 74 74 NE 7 11 29.96 1015 10 16 N/A

Powered by AerisWeather